| time (UTC) | temp F | wind direction | speed knots | gust knots | rain 1hr in | rain 24hr in | rain mn in | humidity % | barometer mb |
| 20260906051913 | 55 | 45 | 0.0 | 0.9 | 0.00 | 0.10 | 0.00 | 92 | 1026.8 |
| 20260906050415 | 55 | 268 | 0.0 | 0.9 | 0.00 | 0.10 | 0.00 | 92 | 1026.6 |
| 20260906044915 | 55 | 62 | 0.0 | 0.9 | 0.00 | 0.24 | 0.00 | 92 | 1026.5 |
| 20260906043413 | 55 | 268 | 0.0 | 0.9 | 0.00 | 0.24 | 0.00 | 91 | 1026.4 |
| 20260906041913 | 55 | 45 | 0.0 | 1.7 | 0.00 | 0.24 | 0.00 | 91 | 1026.3 |
| 20260906040413 | 56 | 88 | 0.9 | 1.7 | 0.00 | 0.24 | 0.00 | 91 | 1026.4 |
| 20260906034913 | 56 | 116 | 0.9 | 1.7 | 0.00 | 0.24 | 0.00 | 90 | 1026.1 |
| 20260906033413 | 56 | 116 | 0.9 | 0.9 | 0.00 | 0.24 | 0.00 | 90 | 1026.0 |
| 20260906031913 | 56 | 222 | 0.9 | 1.7 | 0.00 | 0.24 | 0.00 | 90 | 1026.0 |
| 20260906024914 | 56 | 359 | 0.9 | 1.7 | 0.00 | 0.24 | 0.00 | 89 | 1025.9 |
| 20260906023413 | 57 | 313 | 0.9 | 1.7 | 0.00 | 0.24 | 0.00 | 88 | 1025.9 |
| 20260906021914 | 57 | 19 | 0.0 | 0.9 | 0.00 | 0.24 | 0.00 | 88 | 1025.8 |
| 20260906020413 | 58 | 339 | 0.9 | 1.7 | 0.00 | 0.24 | 0.00 | 87 | 1025.8 |
| 20260906014910 | 58 | 359 | 0.9 | 1.7 | 0.00 | 0.24 | 0.00 | 87 | 1026.0 |
| 20260906013410 | 58 | 240 | 0.9 | 1.7 | 0.00 | 0.24 | 0.00 | 87 | 1025.8 |
| 20260906011912 | 58 | 313 | 0.0 | 0.9 | 0.00 | 0.24 | 0.00 | 87 | 1025.8 |
| 20260906004915 | 59 | 45 | 0.0 | 1.7 | 0.00 | 0.24 | 0.00 | 85 | 1025.7 |
| 20260906001915 | 60 | 300 | 1.7 | 2.6 | 0.00 | 0.24 | 0.00 | 85 | 1025.6 |
| 20260906000414 | 60 | 359 | 0.0 | 2.6 | 0.00 | 0.24 | 0.00 | 85 | 1025.4 |
| 20260905234913 | 60 | 222 | 0.9 | 3.5 | 0.00 | 0.24 | 0.00 | 85 | 1025.4 |
| 20260905233413 | 60 | 177 | 0.9 | 3.5 | 0.00 | 0.24 | 0.00 | 85 | 1025.4 |
| 20260905224913 | 60 | 89 | 0.9 | 2.6 | 0.00 | 0.24 | 0.00 | 87 | 1025.3 |
| 20260905223412 | 60 | 313 | 0.9 | 3.5 | 0.00 | 0.24 | 0.00 | 86 | 1025.2 |
| 20260905221911 | 60 | 230 | 0.0 | 1.7 | 0.00 | 0.24 | 0.00 | 85 | 1025.2 |
| 20260905214912 | 61 | 228 | 2.6 | 4.3 | 0.00 | 0.24 | 0.24 | 85 | 1024.8 |
| 20260905213411 | 62 | 251 | 1.7 | 3.5 | 0.00 | 0.24 | 0.24 | 84 | 1024.7 |
| 20260905204912 | 64 | 227 | 2.6 | 4.3 | 0.00 | 0.24 | 0.24 | 81 | 1024.2 |
| 20260905203413 | 64 | 268 | 2.6 | 5.2 | 0.00 | 0.24 | 0.24 | 79 | 1024.2 |
| 20260905201912 | 65 | 233 | 2.6 | 5.2 | 0.00 | 0.24 | 0.24 | 78 | 1024.0 |
| 20260905200413 | 65 | 201 | 3.5 | 13.0 | 0.00 | 0.24 | 0.24 | 78 | 1023.9 |
| 20260905194913 | 65 | 272 | 5.2 | 9.6 | 0.00 | 0.24 | 0.24 | 79 | 1023.6 |
| 20260905191912 | 64 | 244 | 0.9 | 4.3 | 0.00 | 0.24 | 0.24 | 82 | 1022.9 |
| 20260905190412 | 64 | 220 | 3.5 | 5.2 | 0.00 | 0.24 | 0.24 | 82 | 1023.0 |
| 20260905184912 | 64 | 196 | 1.7 | 4.3 | 0.00 | 0.24 | 0.24 | 82 | 1022.9 |
| 20260905183412 | 64 | 214 | 2.6 | 6.1 | 0.00 | 0.24 | 0.24 | 81 | 1022.7 |
| 20260905181913 | 65 | 229 | 3.5 | 6.1 | 0.00 | 0.24 | 0.24 | 81 | 1022.6 |
| 20260905180412 | 65 | 359 | 0.9 | 3.5 | 0.00 | 0.24 | 0.24 | 80 | 1022.5 |
| 20260905174914 | 65 | 211 | 3.5 | 6.1 | 0.00 | 0.24 | 0.24 | 78 | 1022.3 |
| 20260905173413 | 66 | 194 | 1.7 | 3.5 | 0.00 | 0.24 | 0.24 | 77 | 1022.1 |
| 20260905171913 | 67 | 226 | 3.5 | 7.0 | 0.00 | 0.24 | 0.24 | 76 | 1021.9 |
| 20260905164913 | 67 | 208 | 1.7 | 9.6 | 0.00 | 0.24 | 0.24 | 73 | 1022.0 |
| 20260905161914 | 67 | 161 | 2.6 | 8.7 | 0.00 | 0.24 | 0.24 | 69 | 1021.9 |
| 20260905160414 | 67 | 228 | 3.5 | 8.7 | 0.00 | 0.24 | 0.24 | 68 | 1021.7 |
| 20260905154914 | 67 | 263 | 3.5 | 9.6 | 0.00 | 0.24 | 0.24 | 68 | 1021.4 |
| 20260905153414 | 67 | 217 | 4.3 | 9.6 | 0.00 | 0.24 | 0.24 | 68 | 1021.5 |
| 20260905151914 | 67 | 228 | 5.2 | 9.6 | 0.00 | 0.24 | 0.24 | 67 | 1021.5 |
| 20260905150414 | 68 | 159 | 8.7 | 14.8 | 0.00 | 0.24 | 0.24 | 67 | 1021.5 |
| 20260905143413 | 68 | 233 | 2.6 | 9.6 | 0.00 | 0.24 | 0.24 | 69 | 1021.7 |
| 20260905141913 | 68 | 223 | 5.2 | 13.0 | 0.00 | 0.24 | 0.24 | 71 | 1021.8 |
| 20260905140412 | 66 | 302 | 3.5 | 8.7 | 0.00 | 0.24 | 0.24 | 75 | 1021.7 |
| 20260905134912 | 65 | 206 | 2.6 | 10.4 | 0.00 | 0.24 | 0.24 | 78 | 1022.0 |
| 20260905133412 | 64 | 226 | 3.5 | 7.8 | 0.00 | 0.24 | 0.24 | 81 | 1021.9 |
| 20260905130412 | 64 | 228 | 3.5 | 11.3 | 0.00 | 0.24 | 0.24 | 83 | 1021.7 |
| 20260905124913 | 64 | 238 | 2.6 | 6.1 | 0.00 | 0.24 | 0.24 | 82 | 1021.8 |
| 20260905123412 | 64 | 225 | 3.5 | 7.8 | 0.00 | 0.24 | 0.24 | 83 | 1021.8 |
| 20260905121913 | 64 | 261 | 3.5 | 6.1 | 0.00 | 0.24 | 0.24 | 84 | 1021.7 |
| 20260905120412 | 63 | 209 | 3.5 | 5.2 | 0.00 | 0.24 | 0.24 | 86 | 1021.4 |
| 20260905114912 | 62 | 182 | 2.6 | 7.8 | 0.00 | 0.24 | 0.24 | 86 | 1021.5 |
| 20260905111913 | 61 | 19 | 0.9 | 5.2 | 0.01 | 0.24 | 0.24 | 89 | 1021.4 |
| 20260905110413 | 61 | 167 | 1.7 | 5.2 | 0.01 | 0.24 | 0.24 | 87 | 1021.5 |
| 20260905104913 | 62 | 103 | 1.7 | 4.3 | 0.01 | 0.24 | 0.24 | 87 | 1021.4 |
| 20260905103413 | 62 | 229 | 1.7 | 2.6 | 0.01 | 0.23 | 0.23 | 87 | 1021.5 |
| 20260905101912 | 62 | 249 | 1.7 | 4.3 | 0.01 | 0.23 | 0.23 | 88 | 1021.7 |
| 20260905093412 | 62 | 194 | 1.7 | 5.2 | 0.00 | 0.22 | 0.22 | 85 | 1021.1 |
| 20260905091912 | 62 | 145 | 2.6 | 6.1 | 0.00 | 0.22 | 0.22 | 85 | 1021.0 |
| 20260905090414 | 61 | 154 | 1.7 | 4.3 | 0.00 | 0.22 | 0.22 | 86 | 1021.1 |
| 20260905083414 | 59 | 155 | 2.6 | 4.3 | 0.00 | 0.22 | 0.22 | 86 | 1021.0 |
| 20260905081914 | 59 | 177 | 0.9 | 2.6 | 0.00 | 0.22 | 0.22 | 87 | 1021.1 |
| 20260905080412 | 59 | 192 | 0.9 | 2.6 | 0.00 | 0.22 | 0.22 | 88 | 1020.9 |
| 20260905074913 | 58 | 279 | 1.7 | 2.6 | 0.01 | 0.22 | 0.22 | 90 | 1020.8 |
| 20260905073411 | 58 | 359 | 1.7 | 4.3 | 0.06 | 0.22 | 0.22 | 91 | 1021.0 |
| 20260905071912 | 56 | 359 | 1.7 | 4.3 | 0.06 | 0.22 | 0.22 | 91 | 1020.5 |
| 20260905070412 | 56 | 359 | 2.6 | 4.3 | 0.08 | 0.22 | 0.22 | 90 | 1020.5 |
| 20260905064912 | 57 | 138 | 1.7 | 2.6 | 0.08 | 0.21 | 0.21 | 89 | 1020.2 |
| 20260905061914 | 56 | 313 | 0.9 | 2.6 | 0.16 | 0.16 | 0.16 | 87 | 1020.6 |
| 20260905060413 | 57 | 273 | 4.3 | 7.0 | 0.14 | 0.14 | 0.14 | 86 | 1021.1 |
| 20260905054912 | 57 | 313 | 2.6 | 6.1 | 0.13 | 0.13 | 0.13 | 82 | 1020.8 |
| 20260905053412 | 61 | 359 | 2.6 | 14.8 | 0.07 | 0.07 | 0.07 | 72 | 1021.0 |